This demonstration page uses our WeatherBlox Daily Observations layout. Learn more.

Left ArrowRight Arrow

Hourly Observations for May 8, 2015

Temp ( °F °C ) Dew Point ( °F °C ) Humidity (%) Winds ( mph kmh ) Pressure ( in mb ) Visibility ( mi km ) Precip ( " mm )
12:16 am 00:16 Clear 66 19 46 8 49 49 SSW 5 7 30.03 1017 10 16.0934 N/A
12:36 am 00:36 Clear 68 20 45 7 43 43 SSW 5 7 30.03 1017 10 16.0934 N/A
12:55 am 00:55 Clear 64 18 46 8 52 52 SSW 5 7 30.03 1017 10 16.0934 N/A
1:16 am 01:16 Clear 68 20 45 7 43 43 SW 6 9 30.03 1017 10 16.0934 N/A
1:36 am 01:36 Clear 68 20 45 7 43 43 SSW 6 9 30.03 1017 10 16.0934 N/A
1:56 am 01:56 Clear 68 20 43 6 40 40 SSW 3 6 30.03 1017 10 16.0934 N/A
2:16 am 02:16 Clear 64 18 45 7 49 49 S 3 6 30.03 1017 10 16.0934 N/A
2:36 am 02:36 Clear 66 19 45 7 46 46 SSW 3 6 30.03 1017 10 16.0934 N/A
2:56 am 02:56 Clear 63 17 46 8 56 56 S 3 6 30.03 1017 10 16.0934 N/A
3:16 am 03:16 Clear 61 16 46 8 59 59 Calm 30.03 1017 10 16.0934 N/A
3:36 am 03:36 Clear 61 16 46 8 59 59 SSE 5 7 30.03 1017 10 16.0934 N/A
3:56 am 03:56 Clear 61 16 48 9 63 63 SSE 7 11 30.03 1017 10 16.0934 N/A
4:16 am 04:16 Clear 61 16 48 9 63 63 SSE 5 7 30.03 1017 10 16.0934 N/A
4:36 am 04:36 Clear 61 16 48 9 63 63 SSE 7 11 30.03 1017 10 16.0934 N/A
4:56 am 04:56 Clear 61 16 48 9 63 63 SSE 7 11 30.03 1017 10 16.0934 N/A
5:16 am 05:16 Clear 61 16 48 9 63 63 SSE 7 11 30.03 1017 10 16.0934 N/A
5:36 am 05:36 Clear 61 16 48 9 63 63 SSE 6 9 30.03 1017 10 16.0934 N/A
5:55 am 05:55 Clear 61 16 48 9 63 63 SSE 7 11 30.03 1017 10 16.0934 N/A
6:16 am 06:16 Clear 61 16 50 10 68 68 S 6 9 30.03 1017 10 16.0934 N/A
6:36 am 06:36 Sunny 63 17 48 9 59 59 S 7 11 30.06 1018 10 16.0934 N/A
6:56 am 06:56 Sunny 63 17 48 9 59 59 S 7 11 30.06 1018 10 16.0934 N/A
7:16 am 07:16 Sunny 63 17 48 9 59 59 S 7 11 30.06 1018 10 16.0934 N/A
7:35 am 07:35 Sunny 64 18 48 9 56 56 S 7 11 30.06 1018 10 16.0934 N/A
7:56 am 07:56 Sunny 66 19 48 9 52 52 S 7 11 30.06 1018 10 16.0934 N/A
8:16 am 08:16 Sunny 66 19 48 9 52 52 S 8 13 30.06 1018 10 16.0934 N/A
8:36 am 08:36 Sunny 70 21 46 8 43 43 S 8 13 30.06 1018 10 16.0934 N/A
8:56 am 08:56 Sunny 72 22 46 8 41 41 S 9 15 30.03 1017 10 16.0934 N/A
9:16 am 09:16 Sunny 73 23 46 8 38 38 S 9 15 30.03 1017 10 16.0934 N/A
9:36 am 09:36 Sunny 75 24 46 8 36 36 SSW 9 15 30.03 1017 10 16.0934 N/A
9:56 am 09:56 Sunny 77 25 46 8 34 34 SW 13 20 30.03 1017 10 16.0934 N/A
10:16 am 10:16 Sunny 77 25 46 8 34 34 SW 9 15 30.03 1017 10 16.0934 N/A
10:36 am 10:36 Sunny 79 26 46 8 32 32 SSW 10 17 30.03 1017 10 16.0934 N/A
10:55 am 10:55 Sunny 79 26 46 8 32 32 SW 9 15 30.03 1017 10 16.0934 N/A
11:16 am 11:16 Sunny 81 27 45 7 28 28 SW 9 15 30.03 1017 10 16.0934 N/A
11:36 am 11:36 Sunny 82 28 45 7 26 26 SW 12 19 30.03 1017 10 16.0934 N/A
11:56 am 11:56 Sunny 82 28 43 6 25 25 SW 13 20 30.03 1017 10 16.0934 N/A
12:16 pm 12:16 Sunny 84 29 43 6 23 23 SSW 12 19 30.03 1017 10 16.0934 N/A
12:36 pm 12:36 Sunny 84 29 43 6 23 23 WSW 12 19 30.03 1017 10 16.0934 N/A
12:56 pm 12:56 Sunny 82 28 41 5 23 23 SW 12 19 30.03 1017 10 16.0934 N/A
1:16 pm 13:16 Sunny 86 30 37 3 18 18 SSW 14 22 30.03 1017 10 16.0934 N/A
1:36 pm 13:36 Sunny 86 30 39 4 19 19 SW 9 15 30 1016 10 16.0934 N/A
1:56 pm 13:56 Sunny 86 30 36 2 17 17 SSW 13 20 30 1016 10 16.0934 N/A
2:15 pm 14:15 Sunny 88 31 37 3 17 17 SW 13 20 29.97 1015 10 16.0934 N/A
2:36 pm 14:36 Sunny 86 30 36 2 17 17 SW 13 20 30 1016 10 16.0934 N/A
2:56 pm 14:56 Sunny 88 31 36 2 16 16 SSW 12 19 29.94 1014 10 16.0934 N/A
3:16 pm 15:16 Sunny 84 29 36 2 18 18 SSW 14 22 29.97 1015 10 16.0934 N/A
3:36 pm 15:36 Sunny 86 30 37 3 18 18 SSW 12 19 29.97 1015 10 16.0934 N/A
3:55 pm 15:55 Sunny 86 30 37 3 18 18 SW 13 20 29.97 1015 10 16.0934 N/A
4:16 pm 16:16 Sunny 84 29 39 4 20 20 S 10 17 29.97 1015 10 16.0934 N/A
4:36 pm 16:36 Sunny 86 30 39 4 19 19 S 13 20 29.97 1015 10 16.0934 N/A
4:56 pm 16:56 Sunny 88 31 36 2 16 16 SSE 13 20 29.91 1013 10 16.0934 N/A
5:16 pm 17:16 Sunny 88 31 36 2 16 16 S 14 22 29.91 1013 10 16.0934 N/A
5:36 pm 17:36 Sunny 84 29 39 4 20 20 S 12 19 29.94 1014 10 16.0934 N/A
5:56 pm 17:56 Sunny 86 30 37 3 18 18 S 12 19 29.94 1014 10 16.0934 N/A
6:16 pm 18:16 Sunny 84 29 39 4 20 20 S 13 20 29.94 1014 10 16.0934 N/A
6:36 pm 18:36 Sunny 84 29 37 3 19 19 SSW 12 19 29.94 1014 10 16.0934 N/A
6:56 pm 18:56 Sunny 82 28 39 4 21 21 SSW 13 20 29.97 1015 10 16.0934 N/A
7:16 pm 19:16 Sunny 82 28 37 3 20 20 SSW 13 20 29.94 1014 10 16.0934 N/A
7:36 pm 19:36 Sunny 82 28 39 4 21 21 SSW 12 19 29.94 1014 10 16.0934 N/A
7:56 pm 19:56 Sunny 81 27 39 4 23 23 SSW 9 15 29.97 1015 10 16.0934 N/A
8:16 pm 20:16 Sunny 81 27 41 5 24 24 SSW 7 11 29.97 1015 10 16.0934 N/A
8:36 pm 20:36 Sunny 79 26 41 5 26 26 S 5 7 29.97 1015 10 16.0934 N/A
8:56 pm 20:56 Clear 77 25 43 6 30 30 S 6 9 29.97 1015 10 16.0934 N/A
9:16 pm 21:16 Clear 77 25 43 6 30 30 S 7 11 29.97 1015 10 16.0934 N/A
9:36 pm 21:36 Clear 77 25 43 6 30 30 SSW 6 9 29.97 1015 10 16.0934 N/A
9:55 pm 21:55 Clear 75 24 43 6 31 31 SSW 5 7 29.97 1015 10 16.0934 N/A
10:16 pm 22:16 Clear 73 23 52 11 47 47 WNW 16 26 30 1016 10 16.0934 N/A
10:36 pm 22:36 Clear 72 22 55 13 57 57 WNW 8 13 30 1016 10 16.0934 N/A
10:56 pm 22:56 Clear 70 21 55 13 60 60 NW 6 9 30 1016 10 16.0934 N/A
11:16 pm 23:16 Clear 70 21 57 14 64 64 Calm 30 1016 10 16.0934 N/A
11:35 pm 23:35 Clear 70 21 57 14 64 64 Calm 30 1016 10 16.0934 N/A
11:56 pm 23:56 Clear 66 19 57 14 73 73 Calm 30.03 1017 10 16.0934 N/A

Powered by AerisWeather